Location: Buenos Aires
(34.6076°S, 58.4371°W)
Time: 12:27:36
(UTC-03:00)

Envisat - Pass Details

Date: 30 June 2021
Orbit: 764 x 766 km, 98.2° (Epoch: 03 August)

Event Time Altitude Azimuth Distance (km) Brightness Sun altitude
Rises 06:56:52 0° 322° (NW) 3,221 6.0 -13.0°
Reaches altitude 10° 07:01:06 10° 288° (WNW) 2,310 5.0 -12.2°
Enters shadow 07:01:20 10° 285° (WNW) 2,287 5.0 -12.2°
